sat.trackr.live / text

‹ back to catalog

YAOGAN-15

NORAD 38354 · 2012-029A

PAYLOAD ACTIVE UNKNOWN

§ Identity

Operator
Country
PRC
Launch date
2012-05-29
Launch site
TAISC
Launch vehicle
Mass (kg)
RCS (m²)
3.06

External: N2YO · Heavens-Above · Gunter

§ Orbital elements

Epoch: 2026-09-12T05:10:58.359936Z

Period
109.22 min
Inclination
100.7263°
Eccentricity
0.0025861
Mean motion
13.18388208 rev/d
Perigee alt
1,171.3 km
Apogee alt
1,210.5 km
Semi-major
7,569.0 km
B*
1.8846e-4
RAAN
101.5589°
Arg perigee
94.2317°
Mean anomaly
266.1752°
Rev number
68,691

§ Raw data

YAOGAN-151 38354U 12029A   26255.21595324  .00000027  00000+0  18846-3 0  99962 38354 100.7263 101.5589 0025861  94.2317 266.1752 13.18388208686912

JSON: /api/v1/satellites/38354 · /tle

For live sub-satellite position, see the globe view (requires WebGL).

§ Visibility from observer

Set your observer location to see the next 7 days of passes ≥ 10°. The values pass through the URL so the page stays shareable.

No JS? Fill the form by hand. The geolocation button needs JavaScript.